Location: Brunembert
(50.7122°N, 1.8935°E)
Time: 04:38:59
(UTC+00:00)

Cosmos-2242 - Pass Details

Date: 22 April 2021
Orbit: 589 x 618 km, 82.5° (Epoch: 06 May)

Event Time Altitude Azimuth Distance (km) Brightness Sun altitude
Exits shadow 21:12:34 - 207° (SSW) 2,224 5.7 -18.0°
Reaches altitude 10° 21:13:16 10° 210° (SSW) 1,952 5.4 -18.1°
Maximum altitude 21:17:26 48° 285° (WNW) 794 3.9 -18.5°
Drops below altitude 10° 21:21:37 10° 0° (N) 1,950 6.3 -18.9°
Sets 21:23:54 0° 7° (N) 2,853 7.2 -19.1°
